Middlesboro, KY

4:00 PM CDT on September 20, 2017 (GMT -0500)
Middlesboro

Weather History for K1A6 - February, 2012

Change the Weather History Date:

Thursday, February 23, 2012

  Actual Average (KLOZ) Record (KLOZ)
Temperature  
Mean Temperature 63 °F -  
Max Temperature 75 °F 51 °F 76 °F (1982)
Min Temperature 51 °F 32 °F 3 °F (1963)
Degree Days  
Heating Degree Days 2    
Growing Degree Days 13 (Base 50)    
Moisture  
Dew Point 54 °F    
Average Humidity 77    
Maximum Humidity 100    
Minimum Humidity 47    
Precipitation  
Precipitation 0.00 in - - ()
Sea Level Pressure  
Sea Level Pressure 29.56 in    
Wind  
Wind Speed 4 mph (SSW)    
Max Wind Speed 18 mph    
Max Gust Speed 32 mph    
Visibility 9 miles    
Events Thunderstorm    
Averages and records for this station are not official NWS values.
T = Trace of Precipitation, MM = Missing Value Source: NWS Daily Summary

Daily Weather History Graph

Daily Weather History Graph

Search for Another Location

Airport or City:

Trip Planner

Search our weather history database for the weather conditions in past years. The results will help you decide how hot, cold, wet, or windy it might be!

Date:

Astronomy

Feb. 23, 2012 Rise Set
Actual Time 6:14 AM CST 5:23 PM CST
Civil Twilight 5:47 AM CST 5:49 PM CST
Nautical Twilight 5:17 AM CST 6:19 PM CST
Astronomical Twilight 4:48 AM CST 6:49 PM CST
Moon 6:44 AM CST (2/23) 7:22 PM CST (2/23)
Length of Visible Light 12h 01m
Length of Day
11h 09m
Waxing Crescent, 3% of the Moon is Illuminated
Feb 23
Waxing Crescent
Feb 29
First Quarter
Mar 8
Full
Mar 14
Last Quarter
Mar 22
New

Hourly Weather History & Observations

Time (CST) Temp. Dew Point Humidity Pressure Visibility Wind Dir Wind Speed Gust Speed Precip Events Conditions
12:15 AM 51.8 °F 51.8 °F 100% 29.58 in 10.0 mi Calm Calm - N/A   Overcast
12:35 AM 53.6 °F 51.8 °F 94% 29.58 in 10.0 mi Calm Calm - N/A   Overcast
12:55 AM 53.6 °F 51.8 °F 94% 29.58 in 10.0 mi Calm Calm - N/A   Overcast
1:15 AM 53.6 °F 53.6 °F 100% 29.57 in 10.0 mi Calm Calm - N/A   Overcast
1:35 AM 55.4 °F 53.6 °F 94% 29.57 in 10.0 mi Calm Calm - N/A   Overcast
1:55 AM 55.4 °F 53.6 °F 94% 29.57 in 10.0 mi Calm Calm - N/A   Overcast
2:15 AM 55.4 °F 53.6 °F 94% 29.56 in 10.0 mi South 6.9 mph - N/A   Mostly Cloudy
2:35 AM 55.4 °F 55.4 °F 100% 29.56 in 10.0 mi South 3.5 mph - N/A   Overcast
2:55 AM 55.4 °F 55.4 °F 100% 29.56 in 10.0 mi South 8.1 mph - N/A Thunderstorm Overcast
3:15 AM 55.4 °F 55.4 °F 100% 29.56 in 10.0 mi South 6.9 mph - N/A   Overcast
3:35 AM 55.4 °F 55.4 °F 100% 29.57 in 10.0 mi Calm Calm - N/A   Overcast
3:55 AM 55.4 °F 53.6 °F 94% 29.57 in 10.0 mi Calm Calm - N/A   Mostly Cloudy
4:15 AM 55.4 °F 55.4 °F 100% 29.57 in 10.0 mi Calm Calm - N/A   Overcast
4:35 AM 55.4 °F 55.4 °F 100% 29.57 in 10.0 mi Calm Calm - N/A   Overcast
4:55 AM 55.4 °F 53.6 °F 94% 29.57 in 10.0 mi Calm Calm - N/A   Mostly Cloudy
5:15 AM 55.4 °F 53.6 °F 94% 29.58 in 10.0 mi Calm Calm - N/A   Scattered Clouds
5:35 AM 53.6 °F 51.8 °F 94% 29.59 in 10.0 mi Calm Calm - N/A   Clear
5:55 AM 51.8 °F 50.0 °F 94% 29.60 in 7.0 mi Calm Calm - N/A   Scattered Clouds
6:15 AM 51.8 °F 50.0 °F 94% 29.61 in 7.0 mi Calm Calm - N/A   Scattered Clouds
6:35 AM 51.8 °F 50.0 °F 94% 29.62 in 5.0 mi Calm Calm - N/A   Scattered Clouds
6:55 AM 51.8 °F 50.0 °F 94% 29.62 in 3.0 mi Calm Calm - N/A   Scattered Clouds
7:15 AM 51.8 °F 50.0 °F 94% 29.63 in 2.0 mi Calm Calm - N/A   Mostly Cloudy
7:35 AM 51.8 °F 51.8 °F 100% 29.63 in 4.0 mi South 6.9 mph - N/A   Mostly Cloudy
7:55 AM 55.4 °F 53.6 °F 94% 29.62 in 7.0 mi South 5.8 mph - N/A   Mostly Cloudy
8:15 AM 55.4 °F 55.4 °F 100% 29.63 in 7.0 mi SW 4.6 mph - N/A   Mostly Cloudy
8:35 AM 57.2 °F 55.4 °F 94% 29.64 in 10.0 mi Calm Calm - N/A   Overcast
8:55 AM 57.2 °F 55.4 °F 94% 29.64 in 10.0 mi SSW 4.6 mph - N/A   Overcast
9:15 AM 60.8 °F 55.4 °F 82% 29.64 in 10.0 mi SSW 4.6 mph - N/A   Scattered Clouds
9:35 AM 62.6 °F 55.4 °F 77% 29.64 in 10.0 mi South 8.1 mph - N/A   Clear
9:55 AM 62.6 °F 55.4 °F 77% 29.64 in 10.0 mi SSW 9.2 mph - N/A   Clear
10:15 AM 64.4 °F 57.2 °F 77% 29.63 in 10.0 mi South 6.9 mph - N/A   Clear
10:35 AM 64.4 °F 57.2 °F 77% 29.63 in 10.0 mi South 10.4 mph - N/A   Clear
10:55 AM 64.4 °F 55.4 °F 73% 29.61 in 10.0 mi South 8.1 mph - N/A   Clear
11:15 AM 66.2 °F 55.4 °F 68% 29.60 in 10.0 mi South 8.1 mph - N/A   Clear
11:35 AM 68.0 °F 55.4 °F 64% 29.59 in 10.0 mi South 12.7 mph 17.3 mph N/A   Clear
11:55 AM 69.8 °F 55.4 °F 60% 29.58 in 10.0 mi SSW 12.7 mph 16.1 mph N/A   Clear
12:15 PM 69.8 °F 53.6 °F 56% 29.58 in 10.0 mi SW 9.2 mph 23.0 mph N/A   Clear
12:35 PM 69.8 °F 55.4 °F 60% 29.57 in 10.0 mi SW 11.5 mph 17.3 mph N/A   Scattered Clouds
12:55 PM 69.8 °F 57.2 °F 64% 29.56 in 10.0 mi South 11.5 mph 27.6 mph N/A   Mostly Cloudy
1:15 PM 71.6 °F 57.2 °F 60% 29.54 in 10.0 mi South 9.2 mph - N/A   Scattered Clouds
1:35 PM 71.6 °F 57.2 °F 60% 29.52 in 10.0 mi SSW 6.9 mph 18.4 mph N/A   Clear
1:55 PM 73.4 °F 57.2 °F 57% 29.50 in 10.0 mi SSW 6.9 mph - N/A   Scattered Clouds
2:15 PM 73.4 °F 55.4 °F 53% 29.49 in 10.0 mi SSW 15.0 mph 26.5 mph N/A   Clear
2:35 PM 73.4 °F 53.6 °F 50% 29.47 in 10.0 mi South 8.1 mph 24.2 mph N/A   Clear
2:55 PM 73.4 °F 53.6 °F 50% 29.46 in 10.0 mi South 16.1 mph 23.0 mph N/A   Clear
3:15 PM 73.4 °F 53.6 °F 50% 29.45 in 10.0 mi SSW 18.4 mph 24.2 mph N/A   Clear
3:35 PM 75.2 °F 53.6 °F 47% 29.44 in 10.0 mi South 15.0 mph 32.2 mph N/A   Clear
3:55 PM 73.4 °F 53.6 °F 50% 29.43 in 10.0 mi SSW 12.7 mph 20.7 mph N/A   Clear
4:15 PM 75.2 °F 53.6 °F 47% 29.43 in 10.0 mi SSW 10.4 mph 25.3 mph N/A   Clear
4:35 PM 73.4 °F 53.6 °F 50% 29.43 in 10.0 mi South 9.2 mph 18.4 mph N/A   Clear
4:55 PM 73.4 °F 53.6 °F 50% 29.43 in 10.0 mi SSW 6.9 mph - N/A   Clear
5:15 PM 73.4 °F 53.6 °F 50% 29.43 in 10.0 mi South 10.4 mph - N/A   Clear
5:35 PM 73.4 °F 53.6 °F 50% 29.43 in 10.0 mi South 13.8 mph 19.6 mph N/A   Clear
5:55 PM 73.4 °F 53.6 °F 50% 29.44 in 10.0 mi SSW 15.0 mph 28.8 mph N/A   Clear
6:15 PM 73.4 °F 51.8 °F 47% 29.45 in 10.0 mi SSW 12.7 mph 23.0 mph N/A   Clear
6:35 PM 73.4 °F 53.6 °F 50% 29.46 in 10.0 mi SW 15.0 mph 33.4 mph N/A   Clear
6:55 PM 73.4 °F 53.6 °F 50% 29.47 in 10.0 mi SW 16.1 mph 28.8 mph N/A   Clear
7:15 PM 71.6 °F 53.6 °F 53% 29.48 in 10.0 mi WSW 13.8 mph 24.2 mph N/A   Scattered Clouds
7:35 PM 71.6 °F 53.6 °F 53% 29.49 in 10.0 mi SW 8.1 mph 19.6 mph N/A   Overcast
7:55 PM 71.6 °F 55.4 °F 57% 29.48 in 10.0 mi SW 13.8 mph 23.0 mph N/A   Overcast
8:15 PM 71.6 °F 55.4 °F 57% 29.49 in 10.0 mi SSW 11.5 mph 25.3 mph N/A   Overcast
8:35 PM 71.6 °F 55.4 °F 57% 29.49 in 10.0 mi SW 15.0 mph 23.0 mph N/A   Overcast
8:55 PM 71.6 °F 55.4 °F 57% 29.49 in 10.0 mi SSW 11.5 mph 17.3 mph N/A   Mostly Cloudy
9:15 PM 71.6 °F 55.4 °F 57% 29.49 in 10.0 mi South 12.7 mph 20.7 mph N/A   Mostly Cloudy
9:35 PM 69.8 °F 57.2 °F 64% 29.49 in 10.0 mi SSW 8.1 mph 20.7 mph N/A Rain Light Rain
9:55 PM 69.8 °F 59.0 °F 68% 29.49 in 10.0 mi SW 13.8 mph 23.0 mph N/A Rain Light Rain
10:15 PM 69.8 °F 60.8 °F 73% 29.49 in 10.0 mi SW 15.0 mph 23.0 mph N/A Rain Light Rain
10:35 PM 69.8 °F 60.8 °F 73% 29.48 in 10.0 mi SW 12.7 mph 24.2 mph N/A Rain Light Rain
10:55 PM 69.8 °F 60.8 °F 73% 29.47 in 10.0 mi SSW 13.8 mph 24.2 mph N/A   Mostly Cloudy
11:15 PM 69.8 °F 60.8 °F 73% 29.48 in 10.0 mi SSW 15.0 mph 23.0 mph N/A   Scattered Clouds
11:35 PM 69.8 °F 60.8 °F 73% 29.48 in 10.0 mi SSW 11.5 mph 19.6 mph N/A   Scattered Clouds
11:55 PM 69.8 °F 60.8 °F 73% 29.48 in 10.0 mi SW 9.2 mph 24.2 mph N/A   Scattered Clouds